SCP
0 0 0 0 0 0 0 0 0 0 0 0 0 0 0 0 0 0 0 0 0 0 0 0 0 0 0 0 0 0 0 0 0 0 0 0 0 0 0 0 0 0 0 0
0 0 0 0 0 0 0 0 0 0 0 0 0 -0 -0 0 0 -0 0 0 0 0 0 0 0 0 0 0 0 0 0 0 0 0 0 0 0 0 0 0 0 0 0 0
0 0 0 0 0 0 0 0 0 0 0 -0 -0 -0 -0 -0 0 0 0 0 0 0 0 0 0 0 0 0 0 0 0 0 0 0 0 0 0 0 0 0 0 0 0 0
0 0 0 0 0 0 0 0 0 0 0 0 0 -0 0 0 0 0 0 0 0 0 0 0 0 0 0 0 0 0 0 0 0 0 0 0 0 0 0 0 0 0 0 0
0 0 0 0 0 0 0 0 0 0 0 0 0 0 -0 -0 0 0 0 0 0 0 0 0 0 0 0 0 0 0 0 0 0 0 0 0 0 0 0 0 0 0 0 0
0 0 0 0 0 0 0 0 0 0 0 0 0 0 0 0 0 0 0 0 0 0 0 0 0 0 0 0 0 0 0 0 0 0 0 0 0 0 0 0 0 0 0 0
0 0 0 0 0 0 0 0 0 0 0 0 0 0 0 0 0 0 0 0 0 0 0 0 0 0 0 0 0 0 0 0 0 0 0 0 0 0 0 0 0 0 0 0
0 0 0 0 0 0 0 0 0 0 0 0 0 0 0 0 0 0 0 0 0 0 0 0 0 0 0 0 0 0 0 0 0 0 0 0 0 0 0 0 0 0 0 0
0 0 0 0 0 0 0 0 0 0 0 0 0 0 0 0 0 0 0 0 0 0 0 0 0 0 0 0 0 0 0 0 0 0 0 0 0 0 0 0 0 0 0 0
0 0 0 0 0 0 0 0 0 0 0 0 0 0 0 0 0 0 0 0 0 0 0 0 0 0 0 0 0 0 0 0 0 0 0 0 0 0 0 0 0 0 0 0
0 0 0 0 0 0 0 0 0 0 0 0 0 0 0 0 0 0 0 0 0 0 0 0 0 0 0 0 0 0 -0 -0 0 0 0 0 0 0 0 0 0 0 0 0
0 0 0 0 0 0 0 0 0 0 0 0 0 0 0 0 0 0 0 0 0 0 0 0 0 0 0 0 0 0 -0 -0 0 0 0 0 0 0 0 0 0 0 0 0
0 0 0 0 0 0 0 0 0 0 0 0 0 0 0 0 0 0 0 0 0 0 0 0 0 0 0 0 0 0 0 -0 0 0 0 0 0 0 0 0 0 0 0 0
0 0 0 0 0 0 0 0 0 0 0 0 0 0 0 0 0 0 0 0 0 0 0 0 0 0 0 0 -0 -0 0 0 0 0 0 0 0 0 0 0 0 0 0 0
0 0 0 0 0 0 0 0 0 0 0 0 0 0 0 0 0 0 0 0 0 0 0 0 0 0 0 -0 -0 0 0 0 0 0 0 0 0 0 0 0 0 0 0 0
-0 -0 -0 0 0 0 0 0 0 0 0 0 0 0 0 0 0 0 0 0 0 0 0 0 0 0 0 0 0 0 0 0 0 0 0 0 0 0 0 0 0 0 0 0
-0 -0 -0 0 -0 -0 0 0 0 0 0 0 0 0 0 0 0 0 0 0 0 0 0 0 0 0 0 0 0 0 0 0 0 0 0 0 0 0 0 0 0 0 0 0
0 0 0 -0 -0 -0 -0 -0 -0 -0 0 0 0 0 0 0 0 0 0 0 0 0 0 0 0 0 0 0 0 0 0 0 0 0 0 0 0 0 0 0 0 0 0 0
0 0 0 -0 -0 -0 -0 -0 -0 -0 -0 0 0 0 0 0 0 0 0 0 0 0 0 0 0 0 0 0 0 0 0 0 0 0 0 0 0 0 0 0 0 0 0 0
0 0 0 0 0 -0 -0 0 0 0 0 0 0 0 0 0 0 0 0 0 0 0 0 0 0 0 0 0 0 0 0 0 0 0 0 0 0 0 0 0 0 0 0 0
0 0 0 0 0 0 0 0 0 0 0 0 0 0 0 0 0 0 0 0 0 0 0 0 0 0 0 0 0 0 0 0 0 0 0 0 0 0 0 0 0 0 0 0
0 0 0 0 0 0 0 0 0 0 0 0 0 0 0 0 0 0 0 0 0 0 0 0 0 0 0 0 0 0 0 0 0 0 0 0 0 0 0 0 0 0 0 0
0 0 0 0 0 0 0 0 -0 0 0 0 0 0 0 0 0 0 0 0 0 0 0 0 0 0 0 0 0 0 0 0 0 0 0 0 0 0 0 0 0 0 0 0
0 0 0 0 0 0 0 0 0 0 0 0 0 0 0 0 0 0 -0 0 0 0 0 0 0 0 0 0 0 0 0 0 0 0 0 0 0 0 0 0 0 0 0 0
0 0 0 0 0 0 0 0 0 0 0 0 0 0 0 0 0 0 0 0 0 0 0 0 0 0 0 0 0 0 0 0 0 0 0 0 0 0 0 0 0 0 0 0
0 0 0 0 0 0 0 0 0 0 0 -0 0 0 0 0 0 0 0 0 0 0 0 0 0 0 0 0 0 0 0 0 0 0 0 0 0 0 0 0 0 0 0 0
Wind_Speed_500mb
18 19 22 30 31 28 11 13 19 17 12 7 25 39 37 43 50 53 54 54 58 59 52 47 50 58 65 69 72 75 75 79 79 81 80 79 80 82 78 78 87 76 78 72
10 29 29 7 9 15 19 26 30 29 4 7 29 43 39 40 54 57 56 62 65 61 51 49 53 60 68 70 74 77 80 80 81 82 80 76 72 77 77 80 79 81 80 79
34 8 26 15 14 22 29 32 27 31 9 25 27 32 36 32 39 45 55 67 66 58 50 49 53 66 70 74 76 76 80 83 83 81 77 72 71 72 79 77 82 87 85 85
25 27 8 22 32 25 31 28 28 26 15 16 2 19 33 39 38 31 46 57 58 49 45 40 47 53 65 70 72 79 80 82 83 81 81 82 82 77 72 70 75 82 83 88
8 17 26 27 22 20 8 5 12 13 18 25 29 16 18 26 25 28 41 46 41 35 33 31 35 47 59 58 60 68 77 80 81 83 82 84 82 73 67 67 72 76 76 79
8 2 10 14 8 17 20 14 9 3 8 19 28 31 22 28 30 19 24 26 14 13 14 16 21 32 38 44 52 56 67 73 75 78 80 84 79 74 69 72 75 78 75 79
21 20 10 10 11 9 20 14 7 10 12 22 8 16 28 6 25 25 26 34 15 17 14 15 12 14 21 30 36 46 53 61 67 74 75 78 76 70 70 74 73 67 73 77
31 24 33 29 31 20 31 28 14 14 16 25 9 20 11 10 13 27 33 43 33 28 26 27 26 23 23 23 23 30 39 49 57 65 71 74 75 74 77 72 72 69 68 71
23 24 7 5 20 29 16 21 22 23 3 10 19 38 40 25 24 38 36 42 41 26 24 21 26 27 22 20 19 20 25 30 42 52 61 65 71 73 79 73 72 69 69 72
18 31 10 7 5 20 18 7 13 14 11 20 26 33 28 18 24 21 17 30 34 26 20 19 16 15 13 12 11 9 9 15 26 38 47 53 61 67 74 72 73 69 70 72
22 21 7 12 24 31 15 18 14 11 16 12 23 23 10 13 12 11 16 11 13 20 14 16 16 17 15 13 11 9 5 11 20 27 36 45 53 60 67 70 70 68 68 66
22 10 26 35 6 14 24 39 44 17 15 16 24 39 7 12 8 8 14 11 10 11 11 17 16 13 12 11 9 10 13 20 23 27 32 38 45 55 63 68 67 67 64 61
8 6 6 7 11 6 14 29 29 40 6 23 24 28 1 11 2 2 7 7 12 10 13 17 12 12 14 15 23 26 23 28 31 35 37 39 45 53 60 64 62 63 62 59
14 3 10 16 6 18 13 31 37 32 22 49 32 60 38 27 26 14 12 12 7 7 15 17 21 23 25 32 29 37 46 39 43 42 44 50 51 56 57 58 59 58 60 62
12 10 8 20 19 9 11 26 31 42 50 36 56 45 65 33 33 41 40 41 40 39 37 45 52 56 52 49 58 59 57 48 50 56 53 53 59 59 57 58 58 54 56 60
17 8 14 14 24 26 27 34 37 44 52 49 59 54 50 52 50 45 47 47 55 59 54 50 57 57 62 52 52 53 46 54 54 55 57 55 58 58 57 57 58 57 54 60
9 5 6 33 6 16 20 38 40 42 45 43 43 57 31 34 32 35 47 58 61 62 66 63 58 56 64 65 46 48 49 52 56 59 58 55 55 57 55 54 56 58 55 57
12 8 6 25 6 28 25 15 22 35 39 39 43 51 41 48 73 65 68 68 70 71 65 67 63 59 61 56 52 51 55 56 54 50 47 47 52 53 53 53 54 57 53 54
29 19 12 15 23 28 34 19 13 16 27 24 28 38 49 63 56 65 66 56 67 71 64 61 59 54 51 52 52 47 43 42 44 44 43 41 42 45 49 50 50 52 52 56
21 27 23 25 28 23 32 17 16 16 30 13 23 25 25 32 14 25 46 47 43 42 46 43 37 32 30 34 37 38 37 36 35 35 35 34 33 34 38 37 41 43 46 51
7 7 28 28 24 17 31 11 15 21 8 18 30 25 27 14 17 55 57 56 49 43 42 40 36 33 32 29 28 28 28 28 29 31 30 29 28 27 27 28 33 33 37 40
13 9 10 13 13 19 8 8 7 7 22 21 30 33 30 32 36 47 47 40 44 44 38 36 34 31 27 23 22 21 20 20 20 20 20 19 21 21 20 21 22 24 27 29
18 21 13 9 4 7 5 14 5 13 32 40 31 48 44 49 47 43 47 48 43 41 35 29 29 26 22 19 17 13 12 10 10 11 11 11 13 14 15 14 15 18 20 23
10 10 7 1 11 20 29 30 38 43 44 45 56 52 52 59 52 38 39 42 46 41 36 25 21 19 18 17 17 14 12 12 12 12 11 11 11 11 12 14 15 14 12 11
19 11 21 23 31 28 45 53 55 38 38 62 63 53 50 56 64 54 51 44 40 34 35 27 23 21 20 17 17 14 11 11 13 14 15 16 16 16 16 15 13 13 11 7
40 35 25 26 44 34 39 58 40 35 54 62 61 65 63 56 62 61 57 46 43 45 41 41 36 41 38 29 21 15 11 14 15 17 19 19 18 16 14 11 10 10 9 11
Wind_Direction_500mb
200 219 215 222 225 251 282 280 264 264 135 263 263 273 271 273 270 267 267 265 263 257 254 243 234 241 235 232 231 230 228 231 228 229 231 232 234 239 237 235 228 232 235 239
186 228 232 266 282 204 236 258 260 271 265 235 280 281 279 271 264 260 263 265 263 265 257 243 234 235 239 237 236 233 232 232 231 233 235 235 236 242 242 238 232 227 232 235
227 233 233 186 207 220 236 243 256 261 267 239 280 275 268 254 249 262 261 259 262 261 260 250 236 236 241 236 234 237 237 235 235 233 233 233 235 239 242 240 234 231 228 232
245 238 172 211 233 219 250 249 253 268 282 275 197 286 289 290 273 244 254 261 264 266 262 254 241 239 245 250 244 239 237 235 235 234 232 234 239 242 248 244 238 235 234 230
200 191 207 218 220 201 248 37 225 250 258 290 243 262 261 257 260 250 254 258 263 265 259 254 245 243 242 247 244 238 235 233 232 232 233 236 240 242 244 241 241 236 233 226
280 357 216 225 69 206 135 119 108 203 278 264 256 242 261 249 250 259 256 262 270 239 250 261 248 232 236 234 238 236 232 231 229 231 232 235 238 237 238 242 241 238 233 230
209 218 174 167 123 127 196 177 224 236 203 253 8 280 245 252 297 278 268 278 258 265 261 257 261 257 250 242 240 231 229 230 231 233 233 235 236 236 238 240 245 242 235 233
215 224 188 188 215 183 198 202 211 231 238 266 95 239 253 211 262 268 263 266 272 266 263 256 256 256 263 253 247 239 236 233 232 235 236 236 237 236 241 243 245 245 240 240
221 231 215 164 208 204 173 218 250 276 350 286 254 265 274 231 237 248 258 258 269 271 263 261 244 248 241 233 230 236 243 240 238 240 242 240 239 237 238 243 244 243 241 244
244 262 165 138 203 244 227 195 201 216 232 240 258 262 262 274 256 269 238 255 283 278 256 249 229 224 209 202 196 205 234 253 250 250 251 248 244 240 240 242 244 244 243 243
221 233 148 161 205 200 190 215 221 233 225 242 261 261 334 43 36 322 318 308 278 277 231 224 201 187 173 169 170 166 209 256 254 253 253 250 247 243 242 241 244 246 245 240
224 259 241 230 172 255 253 221 211 213 205 235 260 267 136 99 60 356 327 315 308 286 216 198 196 181 168 172 194 236 273 280 277 271 265 260 253 246 242 243 247 249 246 242
37 210 222 269 220 204 240 228 240 231 240 223 220 255 186 114 156 18 288 317 331 301 208 181 174 190 220 237 269 260 261 268 275 273 269 267 260 253 247 245 247 251 247 243
94 287 257 242 66 334 228 237 228 232 222 238 233 256 252 248 280 286 264 241 274 315 248 244 238 245 257 272 270 282 261 269 266 266 271 270 266 263 257 252 250 254 249 245
168 211 216 266 281 322 290 292 292 226 236 237 256 256 266 267 271 284 277 272 275 273 273 276 278 282 281 279 286 277 262 267 271 266 266 268 262 261 260 256 254 258 253 247
178 249 203 257 264 262 267 262 260 267 269 246 252 257 265 275 281 282 281 275 278 282 284 277 282 285 288 286 282 266 248 263 267 268 269 267 264 262 262 259 256 253 256 246
163 195 189 274 257 291 266 254 247 244 242 244 248 258 275 283 283 280 281 276 276 279 279 278 279 277 289 291 278 267 269 269 273 274 273 269 265 263 263 260 255 253 258 248
245 200 227 275 298 263 257 230 241 243 255 250 260 270 281 281 279 283 277 276 276 272 275 277 279 275 281 276 274 274 275 275 274 273 271 268 264 261 260 256 250 250 252 252
222 228 247 244 248 278 276 231 199 213 258 246 249 263 269 273 285 281 280 282 273 277 276 272 274 274 272 272 273 273 272 269 269 271 271 267 262 259 257 254 251 250 248 250
222 227 224 239 252 258 264 263 323 234 261 41 359 345 350 355 284 280 332 320 297 283 282 281 275 270 265 266 268 271 270 270 270 269 267 263 259 253 253 251 248 248 247 247
165 198 221 238 248 253 275 5 300 255 288 6 334 318 320 327 299 307 318 303 292 287 284 281 278 272 265 262 261 263 265 264 266 267 265 264 258 250 243 242 245 247 247 246
223 219 207 219 243 250 354 65 222 342 323 314 302 298 295 297 303 320 328 320 304 293 283 283 282 275 268 260 255 252 257 263 267 267 267 262 253 250 244 240 240 242 242 243
239 228 247 246 269 186 206 144 159 303 290 295 276 303 302 303 307 313 315 323 313 301 292 282 276 269 260 244 228 221 230 237 245 241 235 232 232 222 214 207 213 222 224 231
244 160 227 217 226 243 231 259 286 277 280 291 304 302 301 294 290 296 307 303 300 300 298 290 268 257 249 232 222 219 228 236 231 223 204 192 189 193 194 189 188 199 211 236
250 210 238 247 255 260 266 271 278 262 275 300 290 281 285 291 283 278 287 288 284 283 290 293 275 253 247 242 229 214 211 220 215 191 169 157 154 155 161 161 157 154 156 163
243 246 246 252 264 266 273 285 263 275 288 295 285 286 287 279 278 275 275 281 283 280 274 268 264 264 249 239 225 206 186 168 160 158 146 138 135 135 138 145 144 152 178 205
Wind_Speed_850mb
18 19 22 30 31 28 11 13 19 17 12 7 25 39 37 43 50 53 54 54 58 59 52 47 50 58 65 69 72 75 75 79 79 81 80 79 80 82 78 78 87 76 78 72
10 29 29 7 9 15 19 26 30 29 4 7 29 43 39 40 54 57 56 62 65 61 51 49 53 60 68 70 74 77 80 80 81 82 80 76 72 77 77 80 79 81 80 79
34 8 26 15 14 22 29 32 27 31 9 25 27 32 36 32 39 45 55 67 66 58 50 49 53 66 70 74 76 76 80 83 83 81 77 72 71 72 79 77 82 87 85 85
25 27 8 22 32 25 31 28 28 26 15 16 2 19 33 39 38 31 46 57 58 49 45 40 47 53 65 70 72 79 80 82 83 81 81 82 82 77 72 70 75 82 83 88
8 17 26 27 22 20 8 5 12 13 18 25 29 16 18 26 25 28 41 46 41 35 33 31 35 47 59 58 60 68 77 80 81 83 82 84 82 73 67 67 72 76 76 79
8 2 10 14 8 17 20 14 9 3 8 19 28 31 22 28 30 19 24 26 14 13 14 16 21 32 38 44 52 56 67 73 75 78 80 84 79 74 69 72 75 78 75 79
21 20 10 10 11 9 20 14 7 10 12 22 8 16 28 6 25 25 26 34 15 17 14 15 12 14 21 30 36 46 53 61 67 74 75 78 76 70 70 74 73 67 73 77
31 24 33 29 31 20 31 28 14 14 16 25 9 20 11 10 13 27 33 43 33 28 26 27 26 23 23 23 23 30 39 49 57 65 71 74 75 74 77 72 72 69 68 71
23 24 7 5 20 29 16 21 22 23 3 10 19 38 40 25 24 38 36 42 41 26 24 21 26 27 22 20 19 20 25 30 42 52 61 65 71 73 79 73 72 69 69 72
18 31 10 7 5 20 18 7 13 14 11 20 26 33 28 18 24 21 17 30 34 26 20 19 16 15 13 12 11 9 9 15 26 38 47 53 61 67 74 72 73 69 70 72
22 21 7 12 24 31 15 18 14 11 16 12 23 23 10 13 12 11 16 11 13 20 14 16 16 17 15 13 11 9 5 11 20 27 36 45 53 60 67 70 70 68 68 66
22 10 26 35 6 14 24 39 44 17 15 16 24 39 7 12 8 8 14 11 10 11 11 17 16 13 12 11 9 10 13 20 23 27 32 38 45 55 63 68 67 67 64 61
8 6 6 7 11 6 14 29 29 40 6 23 24 28 1 11 2 2 7 7 12 10 13 17 12 12 14 15 23 26 23 28 31 35 37 39 45 53 60 64 62 63 62 59
14 3 10 16 6 18 13 31 37 32 22 49 32 60 38 27 26 14 12 12 7 7 15 17 21 23 25 32 29 37 46 39 43 42 44 50 51 56 57 58 59 58 60 62
12 10 8 20 19 9 11 26 31 42 50 36 56 45 65 33 33 41 40 41 40 39 37 45 52 56 52 49 58 59 57 48 50 56 53 53 59 59 57 58 58 54 56 60
17 8 14 14 24 26 27 34 37 44 52 49 59 54 50 52 50 45 47 47 55 59 54 50 57 57 62 52 52 53 46 54 54 55 57 55 58 58 57 57 58 57 54 60
9 5 6 33 6 16 20 38 40 42 45 43 43 57 31 34 32 35 47 58 61 62 66 63 58 56 64 65 46 48 49 52 56 59 58 55 55 57 55 54 56 58 55 57
12 8 6 25 6 28 25 15 22 35 39 39 43 51 41 48 73 65 68 68 70 71 65 67 63 59 61 56 52 51 55 56 54 50 47 47 52 53 53 53 54 57 53 54
29 19 12 15 23 28 34 19 13 16 27 24 28 38 49 63 56 65 66 56 67 71 64 61 59 54 51 52 52 47 43 42 44 44 43 41 42 45 49 50 50 52 52 56
21 27 23 25 28 23 32 17 16 16 30 13 23 25 25 32 14 25 46 47 43 42 46 43 37 32 30 34 37 38 37 36 35 35 35 34 33 34 38 37 41 43 46 51
7 7 28 28 24 17 31 11 15 21 8 18 30 25 27 14 17 55 57 56 49 43 42 40 36 33 32 29 28 28 28 28 29 31 30 29 28 27 27 28 33 33 37 40
13 9 10 13 13 19 8 8 7 7 22 21 30 33 30 32 36 47 47 40 44 44 38 36 34 31 27 23 22 21 20 20 20 20 20 19 21 21 20 21 22 24 27 29
18 21 13 9 4 7 5 14 5 13 32 40 31 48 44 49 47 43 47 48 43 41 35 29 29 26 22 19 17 13 12 10 10 11 11 11 13 14 15 14 15 18 20 23
10 10 7 1 11 20 29 30 38 43 44 45 56 52 52 59 52 38 39 42 46 41 36 25 21 19 18 17 17 14 12 12 12 12 11 11 11 11 12 14 15 14 12 11
19 11 21 23 31 28 45 53 55 38 38 62 63 53 50 56 64 54 51 44 40 34 35 27 23 21 20 17 17 14 11 11 13 14 15 16 16 16 16 15 13 13 11 7
40 35 25 26 44 34 39 58 40 35 54 62 61 65 63 56 62 61 57 46 43 45 41 41 36 41 38 29 21 15 11 14 15 17 19 19 18 16 14 11 10 10 9 11
Wind_Direction_850mb
200 219 215 222 225 251 282 280 264 264 135 263 263 273 271 273 270 267 267 265 263 257 254 243 234 241 235 232 231 230 228 231 228 229 231 232 234 239 237 235 228 232 235 239
186 228 232 266 282 204 236 258 260 271 265 235 280 281 279 271 264 260 263 265 263 265 257 243 234 235 239 237 236 233 232 232 231 233 235 235 236 242 242 238 232 227 232 235
227 233 233 186 207 220 236 243 256 261 267 239 280 275 268 254 249 262 261 259 262 261 260 250 236 236 241 236 234 237 237 235 235 233 233 233 235 239 242 240 234 231 228 232
245 238 172 211 233 219 250 249 253 268 282 275 197 286 289 290 273 244 254 261 264 266 262 254 241 239 245 250 244 239 237 235 235 234 232 234 239 242 248 244 238 235 234 230
200 191 207 218 220 201 248 37 225 250 258 290 243 262 261 257 260 250 254 258 263 265 259 254 245 243 242 247 244 238 235 233 232 232 233 236 240 242 244 241 241 236 233 226
280 357 216 225 69 206 135 119 108 203 278 264 256 242 261 249 250 259 256 262 270 239 250 261 248 232 236 234 238 236 232 231 229 231 232 235 238 237 238 242 241 238 233 230
209 218 174 167 123 127 196 177 224 236 203 253 8 280 245 252 297 278 268 278 258 265 261 257 261 257 250 242 240 231 229 230 231 233 233 235 236 236 238 240 245 242 235 233
215 224 188 188 215 183 198 202 211 231 238 266 95 239 253 211 262 268 263 266 272 266 263 256 256 256 263 253 247 239 236 233 232 235 236 236 237 236 241 243 245 245 240 240
221 231 215 164 208 204 173 218 250 276 350 286 254 265 274 231 237 248 258 258 269 271 263 261 244 248 241 233 230 236 243 240 238 240 242 240 239 237 238 243 244 243 241 244
244 262 165 138 203 244 227 195 201 216 232 240 258 262 262 274 256 269 238 255 283 278 256 249 229 224 209 202 196 205 234 253 250 250 251 248 244 240 240 242 244 244 243 243
221 233 148 161 205 200 190 215 221 233 225 242 261 261 334 43 36 322 318 308 278 277 231 224 201 187 173 169 170 166 209 256 254 253 253 250 247 243 242 241 244 246 245 240
224 259 241 230 172 255 253 221 211 213 205 235 260 267 136 99 60 356 327 315 308 286 216 198 196 181 168 172 194 236 273 280 277 271 265 260 253 246 242 243 247 249 246 242
37 210 222 269 220 204 240 228 240 231 240 223 220 255 186 114 156 18 288 317 331 301 208 181 174 190 220 237 269 260 261 268 275 273 269 267 260 253 247 245 247 251 247 243
94 287 257 242 66 334 228 237 228 232 222 238 233 256 252 248 280 286 264 241 274 315 248 244 238 245 257 272 270 282 261 269 266 266 271 270 266 263 257 252 250 254 249 245
168 211 216 266 281 322 290 292 292 226 236 237 256 256 266 267 271 284 277 272 275 273 273 276 278 282 281 279 286 277 262 267 271 266 266 268 262 261 260 256 254 258 253 247
178 249 203 257 264 262 267 262 260 267 269 246 252 257 265 275 281 282 281 275 278 282 284 277 282 285 288 286 282 266 248 263 267 268 269 267 264 262 262 259 256 253 256 246
163 195 189 274 257 291 266 254 247 244 242 244 248 258 275 283 283 280 281 276 276 279 279 278 279 277 289 291 278 267 269 269 273 274 273 269 265 263 263 260 255 253 258 248
245 200 227 275 298 263 257 230 241 243 255 250 260 270 281 281 279 283 277 276 276 272 275 277 279 275 281 276 274 274 275 275 274 273 271 268 264 261 260 256 250 250 252 252
222 228 247 244 248 278 276 231 199 213 258 246 249 263 269 273 285 281 280 282 273 277 276 272 274 274 272 272 273 273 272 269 269 271 271 267 262 259 257 254 251 250 248 250
222 227 224 239 252 258 264 263 323 234 261 41 359 345 350 355 284 280 332 320 297 283 282 281 275 270 265 266 268 271 270 270 270 269 267 263 259 253 253 251 248 248 247 247
165 198 221 238 248 253 275 5 300 255 288 6 334 318 320 327 299 307 318 303 292 287 284 281 278 272 265 262 261 263 265 264 266 267 265 264 258 250 243 242 245 247 247 246
223 219 207 219 243 250 354 65 222 342 323 314 302 298 295 297 303 320 328 320 304 293 283 283 282 275 268 260 255 252 257 263 267 267 267 262 253 250 244 240 240 242 242 243
239 228 247 246 269 186 206 144 159 303 290 295 276 303 302 303 307 313 315 323 313 301 292 282 276 269 260 244 228 221 230 237 245 241 235 232 232 222 214 207 213 222 224 231
244 160 227 217 226 243 231 259 286 277 280 291 304 302 301 294 290 296 307 303 300 300 298 290 268 257 249 232 222 219 228 236 231 223 204 192 189 193 194 189 188 199 211 236
250 210 238 247 255 260 266 271 278 262 275 300 290 281 285 291 283 278 287 288 284 283 290 293 275 253 247 242 229 214 211 220 215 191 169 157 154 155 161 161 157 154 156 163
243 246 246 252 264 266 273 285 263 275 288 295 285 286 287 279 278 275 275 281 283 280 274 268 264 264 249 239 225 206 186 168 160 158 146 138 135 135 138 145 144 152 178 205